Location: Ústí nad Labem
(50.6611°N, 14.0531°E)
Time: 22:09:10
(UTC+02:00)

Vanguard 3 - Visible Passes

Search period start: 12 April 2024 00:00
Search period end: 22 April 2024 00:00
Orbit: 510 x 3236 km, 33.3° (Epoch: 11 April)

Date Brightness Start Highest point End Pass type
(mag) Time Alt. Az. Time Alt. Az. Time Alt. Az.
17 Apr 10.4 04:52:55 10° S 04:57:30 13° SSE 05:01:18 10° SE visible
19 Apr 10.3 04:26:35 10° SSW 04:33:55 17° SSE 04:39:32 10° SE visible
20 Apr 10.7 03:11:24 11° S 03:16:01 13° SSE 03:20:54 10° SE visible
20 Apr 10.0 05:18:57 10° SW 05:27:59 22° S 05:34:17 10° SE visible
21 Apr 10.3 04:02:04 12° SSW 04:10:10 20° SSE 04:17:12 10° ESE visible
